����,���ϕ���(m/s),���ϕ���,�ő�u�ԕ���(m/s),�ő啗��������,�C��(��),���x(%),10���Ԉړ��ώZ�J��(mm),1���Ԉړ��ώZ�J��(mm),���J��(mm),�݌v�J��(mm)
2023-04-17T00:00:00+09:00,0.8,�쓌,1.7,�쓌,9.5,91.4,0,1.5,3,26.5
2023-04-17T00:01:00+09:00,0.8,�쓌,1.7,�쓌,9.5,91.9,0,1.5,0,26.5
2023-04-17T00:02:00+09:00,0.7,�쓌,1.7,�쓌,9.4,91.7,0,1.5,0,26.5
2023-04-17T00:03:00+09:00,0.7,�쓌,1.7,�쓌,9.4,91.8,0,1.5,0,26.5
2023-04-17T00:04:00+09:00,0.6,��,1.7,�쓌,9.4,92.1,0,1,0,26.5
2023-04-17T00:05:00+09:00,0.5,���쐼,1.7,�쓌,9.4,91.9,0,1,0,26.5
2023-04-17T00:06:00+09:00,0.5,��,1.7,�쓌,9.3,91.7,0,1,0,26.5
2023-04-17T00:07:00+09:00,0.5,��,1.5,��쓌,9.2,91.3,0,1,0,26.5
2023-04-17T00:08:00+09:00,0.5,���k��,1.4,��,9.2,91.5,0,1,0,26.5
2023-04-17T00:09:00+09:00,0.5,���k��,1.4,��,9.2,91.9,0,1,0,26.5
2023-04-17T00:10:00+09:00,0.5,���k��,1.4,��,9.1,92.2,0,1,0,26.5
2023-04-17T00:11:00+09:00,0.5,���k��,1.4,��,9.2,92.4,0,1,0,26.5
2023-04-17T00:12:00+09:00,0.5,���k��,1.4,��,9.2,92.6,0,1,0,26.5
2023-04-17T00:13:00+09:00,0.6,���k��,1.6,��,9.2,92.7,0,1,0,26.5
2023-04-17T00:14:00+09:00,0.6,�k��,1.6,��,9.3,93,0,1,0,26.5
2023-04-17T00:15:00+09:00,0.6,�k��,1.6,��,9.3,93.1,0,1,0,26.5
2023-04-17T00:16:00+09:00,0.5,�k�k��,1.6,��,9.4,93.6,0,1,0,26.5
2023-04-17T00:17:00+09:00,0.5,�k,1.6,��,9.4,93.5,0,1,0,26.5
2023-04-17T00:18:00+09:00,0.5,�k�k��,1.9,���k��,9.3,92.6,0,1,0,26.5
2023-04-17T00:19:00+09:00,0.6,�k��,2.6,�k�k��,9.3,92.2,0,1,0,26.5
2023-04-17T00:20:00+09:00,0.8,�k��,2.6,�k�k��,9.3,92.6,0,1,0,26.5
2023-04-17T00:21:00+09:00,0.9,�k��,2.6,�k�k��,9.3,93,0,1,0,26.5
2023-04-17T00:22:00+09:00,1,���k��,2.6,�k�k��,9.3,93.3,0,1,0,26.5
2023-04-17T00:23:00+09:00,1.1,�k��,2.6,�k�k��,9.3,93,0,0.5,0,26.5
2023-04-17T00:24:00+09:00,1.2,�k��,2.6,�k�k��,9.3,93,0,0.5,0,26.5
2023-04-17T00:25:00+09:00,1.2,�k��,2.6,�k�k��,9.3,92.9,0,0.5,0,26.5
2023-04-17T00:26:00+09:00,1.2,���k��,2.6,�k�k��,9.3,93,0,0.5,0,26.5
2023-04-17T00:27:00+09:00,1.2,���k��,2.6,�k�k��,9.3,93.1,0,0.5,0,26.5
2023-04-17T00:28:00+09:00,1.4,���k��,3.2,�k��,9.2,92.7,0,0.5,0,26.5
2023-04-17T00:29:00+09:00,1.3,���k��,3.2,�k��,9.1,92.1,0,0,0,26.5
2023-04-17T00:30:00+09:00,1.3,���k��,3.2,�k��,9.1,92.4,0,0,0,26.5
2023-04-17T00:31:00+09:00,1.3,���k��,3.2,�k��,9.1,92.6,0,0,0,26.5
2023-04-17T00:32:00+09:00,1.4,���k��,3.2,�k��,9,91.8,0,0,0,26.5
2023-04-17T00:33:00+09:00,1.5,���k��,3.2,�k��,9,92.1,0,0,0,26.5
2023-04-17T00:34:00+09:00,1.6,���k��,3.2,�k��,9,92.1,0,0,0,26.5
2023-04-17T00:35:00+09:00,1.7,���k��,3.2,�k��,9,92.3,0,0,0,26.5
2023-04-17T00:36:00+09:00,1.7,���k��,3.2,�k��,9.1,92.4,0,0,0,26.5
2023-04-17T00:37:00+09:00,1.7,���k��,3.2,�k��,9.1,92.6,0,0,0,26.5
2023-04-17T00:38:00+09:00,1.6,���k��,3.2,���k��,9.2,92.4,0,0,0,26.5
2023-04-17T00:39:00+09:00,1.5,���k��,3.2,���k��,9.2,92.1,0,0,0,26.5
2023-04-17T00:40:00+09:00,1.6,���k��,3.2,���k��,9.1,91.5,0,0,0,26.5
2023-04-17T00:41:00+09:00,1.5,���k��,3.2,���k��,9,91.2,0,0,0,26.5
2023-04-17T00:42:00+09:00,1.5,���k��,3.2,���k��,9,91.2,0,0,0,26.5
2023-04-17T00:43:00+09:00,1.5,���k��,2.9,���k��,9,91.3,0,0,0,26.5
2023-04-17T00:44:00+09:00,1.5,��,2.9,���k��,9.1,91.2,0,0,0,26.5
2023-04-17T00:45:00+09:00,1.6,��,2.9,���k��,9.1,91,0,0,0,26.5
2023-04-17T00:46:00+09:00,1.7,��,2.9,���k��,9.1,90.9,0,0,0,26.5
2023-04-17T00:47:00+09:00,1.7,��,2.9,���k��,9.1,90.7,0,0,0,26.5
2023-04-17T00:48:00+09:00,1.7,��,2.9,���k��,9.1,90.9,0,0,0,26.5
2023-04-17T00:49:00+09:00,1.6,��,2.9,���k��,9.2,90.9,0,0,0,26.5
2023-04-17T00:50:00+09:00,1.6,���쓌,2.9,��,9.1,90.5,0,0,0,26.5
2023-04-17T00:51:00+09:00,1.5,���쓌,2.9,��,9.1,90.4,0,0,0,26.5
2023-04-17T00:52:00+09:00,1.4,���쓌,2.9,��,9,90,0,0,0,26.5
2023-04-17T00:53:00+09:00,1.3,���쓌,2.9,��,9,89.9,0,0,0,26.5
2023-04-17T00:54:00+09:00,1.2,���쓌,2.9,��,9,90.2,0,0,0,26.5
2023-04-17T00:55:00+09:00,1,���쓌,2.9,��,9.1,90.5,0,0,0,26.5
2023-04-17T00:56:00+09:00,0.9,���쓌,1.8,��,9.1,90.8,0,0,0,26.5
2023-04-17T00:57:00+09:00,0.8,���쓌,1.8,��,9,90.2,0,0,0,26.5
2023-04-17T00:58:00+09:00,0.7,���쓌,1.8,��,9,90.1,0,0,0,26.5
2023-04-17T00:59:00+09:00,0.7,���쓌,1.8,��,9.1,90.5,0,0,0,26.5
2023-04-17T01:00:00+09:00,0.6,��,1.8,��,9,90.2,0,0,0,26.5
2023-04-17T01:01:00+09:00,0.5,��,1.8,��,9,90.5,0,0,0,26.5
2023-04-17T01:02:00+09:00,0.5,���쓌,1.8,��,9,90.4,0,0,0,26.5
2023-04-17T01:03:00+09:00,0.4,���쓌,1.4,���쓌,8.9,90.2,0,0,0,26.5
2023-04-17T01:04:00+09:00,0.4,���쓌,1.4,���쓌,9,90.5,0,0,0,26.5
2023-04-17T01:05:00+09:00,0.5,���쓌,1.4,���쓌,9.1,91,0,0,0,26.5
2023-04-17T01:06:00+09:00,0.5,���쓌,1.4,���쓌,9.1,91,0,0,0,26.5
2023-04-17T01:07:00+09:00,0.6,�쓌,2,�쓌,9.2,91.6,0,0,0,26.5
2023-04-17T01:08:00+09:00,0.7,�쓌,2,�쓌,9.1,90.6,0,0,0,26.5
2023-04-17T01:09:00+09:00,0.8,�쓌,2,�쓌,9,90.5,0,0,0,26.5
2023-04-17T01:10:00+09:00,0.9,�쓌,2.4,�쓌,9,90.8,0,0,0,26.5
2023-04-17T01:11:00+09:00,1.1,�쓌,2.8,�쓌,8.9,90.4,0,0,0,26.5
2023-04-17T01:12:00+09:00,1.2,�쓌,2.8,�쓌,8.8,90.2,0,0,0,26.5
2023-04-17T01:13:00+09:00,1.3,�쓌,2.8,�쓌,8.8,90.3,0,0,0,26.5
2023-04-17T01:14:00+09:00,1.4,�쓌,2.8,�쓌,8.7,90.6,0,0,0,26.5
2023-04-17T01:15:00+09:00,1.5,�쓌,2.8,�쓌,8.8,91.3,0,0,0,26.5
2023-04-17T01:16:00+09:00,1.6,�쓌,2.8,�쓌,8.8,90.7,0,0,0,26.5
2023-04-17T01:17:00+09:00,1.5,�쓌,2.8,�쓌,8.8,91.2,0,0,0,26.5
2023-04-17T01:18:00+09:00,1.5,�쓌,2.8,�쓌,8.7,91.1,0,0,0,26.5
2023-04-17T01:19:00+09:00,1.5,�쓌,2.8,�쓌,8.7,91.1,0,0,0,26.5
2023-04-17T01:20:00+09:00,1.5,�쓌,2.8,�쓌,8.7,91.2,0,0,0,26.5
2023-04-17T01:21:00+09:00,1.4,�쓌,2.7,�쓌,8.7,91.4,0,0,0,26.5
2023-04-17T01:22:00+09:00,1.3,�쓌,2,�쓌,8.7,91.1,0,0,0,26.5
2023-04-17T01:23:00+09:00,1.3,�쓌,2,�쓌,8.7,91.4,0,0,0,26.5
2023-04-17T01:24:00+09:00,1.2,�쓌,2,�쓌,8.7,91.8,0,0,0,26.5
2023-04-17T01:25:00+09:00,1.1,�쓌,1.7,�쓌,8.8,92.2,0,0,0,26.5
2023-04-17T01:26:00+09:00,0.9,�쓌,1.7,�쓌,8.9,92.5,0,0,0,26.5
2023-04-17T01:27:00+09:00,0.8,�쓌,1.7,�쓌,8.8,92,0,0,0,26.5
2023-04-17T01:28:00+09:00,0.8,���쓌,1.7,�쓌,8.8,92.1,0,0,0,26.5
2023-04-17T01:29:00+09:00,0.7,���쓌,1.7,�쓌,8.7,91.9,0,0,0,26.5
2023-04-17T01:30:00+09:00,0.7,���쓌,1.7,�쓌,8.7,91.9,0,0,0,26.5
2023-04-17T01:31:00+09:00,0.6,��,1.3,���k��,8.6,91.6,0,0,0,26.5
2023-04-17T01:32:00+09:00,0.6,��,1.5,���k��,8.6,91.7,0,0,0,26.5
2023-04-17T01:33:00+09:00,0.5,��,1.5,���k��,8.6,92.1,0,0,0,26.5
2023-04-17T01:34:00+09:00,0.5,��,1.5,���k��,8.6,92.3,0,0,0,26.5
2023-04-17T01:35:00+09:00,0.5,���k��,1.5,���k��,8.6,92.3,0,0,0,26.5
2023-04-17T01:36:00+09:00,0.5,���k��,1.5,���k��,8.6,92.4,0,0,0,26.5
2023-04-17T01:37:00+09:00,0.6,���k��,1.5,���k��,8.6,92.5,0,0,0,26.5
2023-04-17T01:38:00+09:00,0.6,���k��,1.5,���k��,8.8,93.2,0,0,0,26.5
2023-04-17T01:39:00+09:00,0.5,��,1.5,���k��,8.7,92.7,0,0,0,26.5
2023-04-17T01:40:00+09:00,0.6,��,1.5,���k��,8.6,92.6,0,0,0,26.5
2023-04-17T01:41:00+09:00,0.6,��,1.5,���k��,8.6,92.5,0,0,0,26.5
2023-04-17T01:42:00+09:00,0.6,��,1.4,��,8.5,92.4,0,0,0,26.5
2023-04-17T01:43:00+09:00,0.6,���쓌,1.4,��,8.4,92.4,0,0,0,26.5
2023-04-17T01:44:00+09:00,0.6,���쓌,1.4,��,8.5,92.8,0,0,0,26.5
2023-04-17T01:45:00+09:00,0.6,���쓌,1.4,��,8.4,92.9,0,0,0,26.5
2023-04-17T01:46:00+09:00,0.6,���쓌,1.4,��,8.4,93,0,0,0,26.5
2023-04-17T01:47:00+09:00,0.6,�쓌,1.4,��,8.4,93.3,0,0,0,26.5
2023-04-17T01:48:00+09:00,0.6,�쓌,1.4,��,8.4,93.3,0,0,0,26.5
2023-04-17T01:49:00+09:00,0.7,�쓌,1.4,��,8.3,93,0,0,0,26.5
2023-04-17T01:50:00+09:00,0.6,��쓌,1.4,��,8.3,93.2,0,0,0,26.5
2023-04-17T01:51:00+09:00,0.5,��쓌,1.4,��,8.2,93.2,0,0,0,26.5
2023-04-17T01:52:00+09:00,0.5,��쓌,1,�쓌,8.3,93.5,0,0,0,26.5
2023-04-17T01:53:00+09:00,0.5,��쓌,1,�쓌,8.4,94.2,0,0,0,26.5
2023-04-17T01:54:00+09:00,0.4,��쓌,1,�쓌,8.2,93.4,0,0,0,26.5
2023-04-17T01:55:00+09:00,0.4,��쓌,0.9,��쓌,8.2,93.3,0,0,0,26.5
2023-04-17T01:56:00+09:00,0.4,��쓌,1.1,��,8.1,93.3,0,0,0,26.5
2023-04-17T01:57:00+09:00,0.4,��쓌,1.3,��쓌,8.1,93.5,0,0,0,26.5
2023-04-17T01:58:00+09:00,0.4,��쓌,1.3,��쓌,8,93.7,0,0,0,26.5
2023-04-17T01:59:00+09:00,0.4,�쓌,1.3,��쓌,8.1,93.9,0,0,0,26.5
2023-04-17T02:00:00+09:00,0.5,�쓌,1.3,��쓌,8,93.8,0,0,0,26.5
2023-04-17T02:01:00+09:00,0.5,�쓌,1.3,��쓌,8,93.8,0,0,0,26.5
2023-04-17T02:02:00+09:00,0.4,���쓌,1.3,��쓌,8,93.9,0,0,0,26.5
2023-04-17T02:03:00+09:00,0.4,���쓌,1.3,��쓌,8,94.1,0,0,0,26.5
2023-04-17T02:04:00+09:00,0.5,���쓌,1.3,��쓌,8,94.4,0,0,0,26.5
2023-04-17T02:05:00+09:00,0.5,���쓌,1.3,��쓌,8,94.2,0,0,0,26.5
2023-04-17T02:06:00+09:00,0.5,��,1.3,��쓌,8,94.2,0,0,0,26.5
2023-04-17T02:07:00+09:00,0.5,��,1.1,���k��,7.9,94.2,0,0,0,26.5
2023-04-17T02:08:00+09:00,0.6,��,1.1,���k��,7.9,94.2,0,0,0,26.5
2023-04-17T02:09:00+09:00,0.6,��,1.1,���k��,7.9,94.5,0,0,0,26.5
2023-04-17T02:10:00+09:00,0.6,��,1.5,���쓌,7.9,94.6,0,0,0,26.5
2023-04-17T02:11:00+09:00,0.7,��,1.7,���쓌,7.9,94.4,0,0,0,26.5
2023-04-17T02:12:00+09:00,0.8,��,1.7,���쓌,7.8,94.4,0,0,0,26.5
2023-04-17T02:13:00+09:00,0.9,��,1.8,���k��,7.8,94.4,0,0,0,26.5
2023-04-17T02:14:00+09:00,1,��,1.8,���k��,7.8,94.5,0,0,0,26.5
2023-04-17T02:15:00+09:00,1,��,1.8,���k��,7.8,94.6,0,0,0,26.5
2023-04-17T02:16:00+09:00,1,��,1.8,���k��,7.9,94.7,0,0,0,26.5
2023-04-17T02:17:00+09:00,1.1,��,1.8,���k��,7.9,94.9,0,0,0,26.5
2023-04-17T02:18:00+09:00,1.1,��,1.8,���k��,7.9,95,0,0,0,26.5
2023-04-17T02:19:00+09:00,1.2,��,1.8,���k��,7.9,95,0,0,0,26.5
2023-04-17T02:20:00+09:00,1.2,��,1.8,���k��,7.9,95,0,0,0,26.5
2023-04-17T02:21:00+09:00,1.2,��,1.8,���k��,7.9,95,0,0,0,26.5
2023-04-17T02:22:00+09:00,1.1,��,1.8,���k��,7.8,94.8,0,0,0,26.5
2023-04-17T02:23:00+09:00,1,���쓌,1.8,�쓌,7.7,94.3,0,0,0,26.5
2023-04-17T02:24:00+09:00,0.9,���쓌,1.8,�쓌,7.6,94.2,0,0,0,26.5
2023-04-17T02:25:00+09:00,0.8,�쓌,1.8,�쓌,7.7,94.7,0,0,0,26.5
2023-04-17T02:26:00+09:00,0.7,��쐼,1.8,�쓌,7.7,94.8,0,0,0,26.5
2023-04-17T02:27:00+09:00,0.6,�쐼,1.8,�쓌,7.7,94.9,0,0,0,26.5
2023-04-17T02:28:00+09:00,0.5,���쐼,1.8,�쓌,7.8,95.1,0,0,0,26.5
2023-04-17T02:29:00+09:00,0.4,���k��,1.8,�쓌,7.7,95.1,0,0,0,26.5
2023-04-17T02:30:00+09:00,0.3,�k��,1.5,�쓌,7.8,95.1,0,0,0,26.5
2023-04-17T02:31:00+09:00,0.3,�k�k��,0.8,���쐼,7.8,95.2,0,0,0,26.5
2023-04-17T02:32:00+09:00,0.3,�k,0.8,���쐼,7.8,95.2,0,0,0,26.5
2023-04-17T02:33:00+09:00,0.3,�k,0.9,�k�k��,7.8,95.1,0,0,0,26.5
2023-04-17T02:34:00+09:00,0.4,�k�k��,0.9,�k�k��,7.7,95.1,0,0,0,26.5
2023-04-17T02:35:00+09:00,0.3,�k�k��,0.9,�k�k��,7.8,95.2,0,0,0,26.5
2023-04-17T02:36:00+09:00,0.4,�k�k��,0.9,�k�k��,7.8,95.2,0,0,0,26.5
2023-04-17T02:37:00+09:00,0.4,�k�k��,0.9,�k�k��,7.8,95.1,0,0,0,26.5
2023-04-17T02:38:00+09:00,0.4,�k�k��,0.9,�k�k��,7.9,95.3,0,0,0,26.5
2023-04-17T02:39:00+09:00,0.4,�k�k��,0.9,�k�k��,7.9,95.5,0,0,0,26.5
2023-04-17T02:40:00+09:00,0.4,�k�k��,1.5,�쓌,7.7,94.8,0,0,0,26.5
2023-04-17T02:41:00+09:00,0.5,�k��,1.7,��쓌,7.5,94.2,0,0,0,26.5
2023-04-17T02:42:00+09:00,0.6,���k��,1.7,��쓌,7.5,94.3,0,0,0,26.5
2023-04-17T02:43:00+09:00,0.6,��,1.7,��쓌,7.5,94.6,0,0,0,26.5
2023-04-17T02:44:00+09:00,0.7,���쓌,1.7,��쓌,7.4,94.8,0,0,0,26.5
2023-04-17T02:45:00+09:00,0.9,�쓌,1.7,��쓌,7.4,94.9,0,0,0,26.5
2023-04-17T02:46:00+09:00,1,�쓌,1.7,��쓌,7.4,95,0,0,0,26.5
2023-04-17T02:47:00+09:00,1.1,�쓌,1.7,��쓌,7.4,95.1,0,0,0,26.5
2023-04-17T02:48:00+09:00,1.2,�쓌,1.7,��쓌,7.4,95.2,0,0,0,26.5
2023-04-17T02:49:00+09:00,1.3,�쓌,2.1,���쓌,7.5,95.2,0,0,0,26.5
2023-04-17T02:50:00+09:00,1.4,�쓌,2.1,���쓌,7.4,95.2,0,0,0,26.5
2023-04-17T02:51:00+09:00,1.4,���쓌,2.1,���쓌,7.5,95.3,0,0,0,26.5
2023-04-17T02:52:00+09:00,1.4,���쓌,2.1,���쓌,7.5,95.3,0,0,0,26.5
2023-04-17T02:53:00+09:00,1.4,���쓌,2.1,���쓌,7.4,95.2,0,0,0,26.5
2023-04-17T02:54:00+09:00,1.3,���쓌,2.1,���쓌,7.4,95.2,0,0,0,26.5
2023-04-17T02:55:00+09:00,1.2,���쓌,2.1,���쓌,7.4,95.3,0,0,0,26.5
2023-04-17T02:56:00+09:00,1.1,���쓌,2.1,���쓌,7.4,95.2,0,0,0,26.5
2023-04-17T02:57:00+09:00,1.1,��,2.1,���쓌,7.4,95.2,0,0,0,26.5
2023-04-17T02:58:00+09:00,1,��,2.1,���쓌,7.4,95.2,0,0,0,26.5
2023-04-17T02:59:00+09:00,0.9,��,1.9,���쓌,7.4,95.2,0,0,0,26.5
2023-04-17T03:00:00+09:00,0.9,��,1.8,���쓌,7.4,95.2,0,0,0,26.5
2023-04-17T03:01:00+09:00,0.9,���k��,1.5,���쓌,7.3,95.2,0,0,0,26.5
2023-04-17T03:02:00+09:00,0.8,���k��,1.3,���k��,7.3,95.2,0,0,0,26.5
2023-04-17T03:03:00+09:00,0.8,���k��,1.3,���k��,7.3,95.2,0,0,0,26.5
2023-04-17T03:04:00+09:00,0.8,���k��,1.3,���k��,7.3,95.3,0,0,0,26.5
2023-04-17T03:05:00+09:00,0.7,���k��,1.3,���k��,7.3,95.3,0,0,0,26.5
2023-04-17T03:06:00+09:00,0.7,���k��,1.3,���k��,7.3,95.3,0,0,0,26.5
2023-04-17T03:07:00+09:00,0.7,���k��,1.3,���k��,7.3,95.3,0,0,0,26.5
2023-04-17T03:08:00+09:00,0.6,���k��,1.3,���k��,7.3,95.4,0,0,0,26.5
2023-04-17T03:09:00+09:00,0.6,���k��,1.3,���k��,7.5,95.5,0,0,0,26.5
2023-04-17T03:10:00+09:00,0.5,���k��,1.2,�k��,7.6,96,0,0,0,26.5
2023-04-17T03:11:00+09:00,0.4,��,1.2,�k��,7.6,95.8,0,0,0,26.5
2023-04-17T03:12:00+09:00,0.3,��,1,���k��,7.5,95.5,0,0,0,26.5
2023-04-17T03:13:00+09:00,0.4,���쓌,1.7,���쓌,7.6,95.4,0,0,0,26.5
2023-04-17T03:14:00+09:00,0.5,���쓌,1.7,���쓌,7.5,95.4,0,0,0,26.5
2023-04-17T03:15:00+09:00,0.6,���쓌,1.7,���쓌,7.5,95.3,0,0,0,26.5
2023-04-17T03:16:00+09:00,0.6,���쓌,1.7,���쓌,7.5,95.3,0,0,0,26.5
2023-04-17T03:17:00+09:00,0.8,�쓌,1.9,���쓌,7.4,95.1,0,0,0,26.5
2023-04-17T03:18:00+09:00,0.9,�쓌,1.9,���쓌,7.4,95.1,0,0,0,26.5
2023-04-17T03:19:00+09:00,1,�쓌,2,���쓌,7.4,95.2,0,0,0,26.5
2023-04-17T03:20:00+09:00,1.1,���쓌,2,���쓌,7.4,95.3,0,0,0,26.5
2023-04-17T03:21:00+09:00,1.3,���쓌,2,���쓌,7.4,95.4,0,0,0,26.5
2023-04-17T03:22:00+09:00,1.4,���쓌,2.1,���쓌,7.4,95.3,0,0,0,26.5
2023-04-17T03:23:00+09:00,1.5,���쓌,2.1,���쓌,7.4,95.3,0,0,0,26.5
2023-04-17T03:24:00+09:00,1.5,���쓌,2.1,���쓌,7.4,95.3,0,0,0,26.5
2023-04-17T03:25:00+09:00,1.5,���쓌,2.1,���쓌,7.4,95.4,0,0,0,26.5
2023-04-17T03:26:00+09:00,1.5,���쓌,2.1,���쓌,7.4,95.4,0,0,0,26.5
2023-04-17T03:27:00+09:00,1.4,��,2.1,���쓌,7.4,95.4,0,0,0,26.5
2023-04-17T03:28:00+09:00,1.3,��,2.1,���쓌,7.4,95.3,0,0,0,26.5
2023-04-17T03:29:00+09:00,1.2,��,2.1,���쓌,7.4,95.3,0,0,0,26.5
2023-04-17T03:30:00+09:00,1.2,��,2.1,���쓌,7.4,95.4,0,0,0,26.5
2023-04-17T03:31:00+09:00,1.1,��,2.1,���쓌,7.4,95.4,0,0,0,26.5
2023-04-17T03:32:00+09:00,1,��,2,���쓌,7.5,95.4,0,0,0,26.5
2023-04-17T03:33:00+09:00,0.9,��,1.8,���쓌,7.5,95.4,0,0,0,26.5
2023-04-17T03:34:00+09:00,0.9,��,1.6,���쓌,7.5,95.5,0,0,0,26.5
2023-04-17T03:35:00+09:00,0.9,��,1.6,���쓌,7.5,95.5,0,0,0,26.5
2023-04-17T03:36:00+09:00,0.9,��,1.6,���쓌,7.5,95.5,0,0,0,26.5
2023-04-17T03:37:00+09:00,0.9,���쓌,1.6,���쓌,7.5,95.5,0,0,0,26.5
2023-04-17T03:38:00+09:00,0.9,���쓌,1.6,���쓌,7.5,95.4,0,0,0,26.5
2023-04-17T03:39:00+09:00,1,���쓌,1.6,���쓌,7.5,95.6,0,0,0,26.5
2023-04-17T03:40:00+09:00,1,���쓌,1.6,���쓌,7.5,95.5,0,0,0,26.5
2023-04-17T03:41:00+09:00,1,���쓌,1.6,���쓌,7.5,95.4,0,0,0,26.5
2023-04-17T03:42:00+09:00,1,���쓌,1.6,���쓌,7.5,95.4,0,0,0,26.5
2023-04-17T03:43:00+09:00,1,���쓌,1.6,���쓌,7.5,95.4,0,0,0,26.5
2023-04-17T03:44:00+09:00,0.9,���쓌,1.3,���쓌,7.5,95.4,0,0,0,26.5
2023-04-17T03:45:00+09:00,0.9,���쓌,1.3,���쓌,7.5,95.4,0,0,0,26.5
2023-04-17T03:46:00+09:00,0.8,���쓌,1.3,���쓌,7.5,95.5,0,0,0,26.5
2023-04-17T03:47:00+09:00,0.8,��,1.3,���쓌,7.4,95.3,0,0,0,26.5
2023-04-17T03:48:00+09:00,0.7,��,1.2,�쓌,7.4,95.3,0,0,0,26.5
2023-04-17T03:49:00+09:00,0.7,��,1.2,�쓌,7.4,95.4,0,0,0,26.5
2023-04-17T03:50:00+09:00,0.7,��,1.1,���k��,7.4,95.4,0,0,0,26.5
2023-04-17T03:51:00+09:00,0.6,��,1.1,���k��,7.4,95.5,0,0,0,26.5
2023-04-17T03:52:00+09:00,0.6,��,1.1,���k��,7.5,95.6,0,0,0,26.5
2023-04-17T03:53:00+09:00,0.6,��,1.1,���k��,7.4,95.5,0,0,0,26.5
2023-04-17T03:54:00+09:00,0.6,��,1.1,���k��,7.6,95.6,0,0,0,26.5
2023-04-17T03:55:00+09:00,0.6,��,1.2,��쓌,7.7,95.9,0,0,0,26.5
2023-04-17T03:56:00+09:00,0.6,���쓌,1.2,��쓌,7.6,95.7,0,0,0,26.5
2023-04-17T03:57:00+09:00,0.7,���쓌,1.6,��쓌,7.5,95.4,0,0,0,26.5
2023-04-17T03:58:00+09:00,0.7,�쓌,1.6,��쓌,7.5,95.4,0,0,0,26.5
2023-04-17T03:59:00+09:00,0.6,�쓌,1.6,��쓌,7.5,95.4,0,0,0,26.5
2023-04-17T04:00:00+09:00,0.6,�쓌,1.6,��쓌,7.5,95.5,0,0,0,26.5
2023-04-17T04:01:00+09:00,0.6,��쓌,1.6,��쓌,7.6,95.7,0,0,0,26.5
2023-04-17T04:02:00+09:00,0.6,��쓌,1.6,��쓌,7.6,95.6,0,0,0,26.5
2023-04-17T04:03:00+09:00,0.6,��쓌,1.6,��쓌,7.5,95.5,0,0,0,26.5
2023-04-17T04:04:00+09:00,0.7,��쓌,1.6,��쓌,7.4,95.3,0,0,0,26.5
2023-04-17T04:05:00+09:00,0.7,��쓌,1.6,��쓌,7.4,95.3,0,0,0,26.5
2023-04-17T04:06:00+09:00,0.7,�쓌,1.6,��쓌,7.4,95.5,0,0,0,26.5
2023-04-17T04:07:00+09:00,0.6,�쓌,1.4,��,7.4,95.5,0,0,0,26.5
2023-04-17T04:08:00+09:00,0.6,�쓌,1.4,��,7.4,95.5,0,0,0,26.5
2023-04-17T04:09:00+09:00,0.6,�쓌,1.4,��,7.4,95.5,0,0,0,26.5
2023-04-17T04:10:00+09:00,0.5,���쓌,1.4,��,7.4,95.6,0,0,0,26.5
2023-04-17T04:11:00+09:00,0.5,���쓌,1.4,��,7.4,95.5,0,0,0,26.5
2023-04-17T04:12:00+09:00,0.5,���쓌,1.4,��,7.4,95.6,0,0,0,26.5
2023-04-17T04:13:00+09:00,0.5,���쓌,1.5,���k��,7.3,95.4,0,0,0,26.5
2023-04-17T04:14:00+09:00,0.6,��,1.8,���k��,7.2,95.3,0,0,0,26.5
2023-04-17T04:15:00+09:00,0.6,��,1.9,��,7.2,95.2,0,0,0,26.5
2023-04-17T04:16:00+09:00,0.7,��,1.9,��,7.1,95.3,0,0,0,26.5
2023-04-17T04:17:00+09:00,0.8,��,1.9,��,7.2,95.3,0,0,0,26.5
2023-04-17T04:18:00+09:00,0.9,��,1.9,��,7.2,95.4,0,0,0,26.5
2023-04-17T04:19:00+09:00,1,��,2.6,���k��,7.2,95.4,0,0,0,26.5
2023-04-17T04:20:00+09:00,1.2,��,2.6,���k��,7.1,95.4,0,0,0,26.5
2023-04-17T04:21:00+09:00,1.3,��,2.8,��,7.1,95.4,0,0,0,26.5
2023-04-17T04:22:00+09:00,1.5,��,4.1,���쓌,7.1,95.4,0,0,0,26.5
2023-04-17T04:23:00+09:00,1.7,��,4.1,���쓌,7.1,95.4,0,0,0,26.5
2023-04-17T04:24:00+09:00,1.7,��,4.1,���쓌,7.2,95.6,0,0,0,26.5
2023-04-17T04:25:00+09:00,1.7,��,4.1,���쓌,7.2,95.7,0,0,0,26.5
2023-04-17T04:26:00+09:00,1.7,��,4.1,���쓌,7.2,95.7,0,0,0,26.5
2023-04-17T04:27:00+09:00,1.7,��,4.1,���쓌,7.2,95.7,0,0,0,26.5
2023-04-17T04:28:00+09:00,1.7,��,4.1,���쓌,7.2,95.6,0,0,0,26.5
2023-04-17T04:29:00+09:00,1.6,��,4.1,���쓌,7.2,95.6,0,0,0,26.5
2023-04-17T04:30:00+09:00,1.6,��,4.1,���쓌,7.2,95.6,0,0,0,26.5
2023-04-17T04:31:00+09:00,1.5,��,4.1,���쓌,7.2,95.6,0,0,0,26.5
2023-04-17T04:32:00+09:00,1.3,��,3.5,��,7.2,95.6,0,0,0,26.5
2023-04-17T04:33:00+09:00,1.2,��,2.1,��,7.2,95.6,0,0,0,26.5
2023-04-17T04:34:00+09:00,1.2,��,2.1,��,7.2,95.6,0,0,0,26.5
2023-04-17T04:35:00+09:00,1.2,��,1.9,��,7.2,95.6,0,0,0,26.5
2023-04-17T04:36:00+09:00,1.2,���k��,1.9,��,7.2,95.6,0,0,0,26.5
2023-04-17T04:37:00+09:00,1.2,���k��,1.9,��,7.2,95.6,0,0,0,26.5
2023-04-17T04:38:00+09:00,1.2,���k��,1.9,���k��,7.2,95.5,0,0,0,26.5
2023-04-17T04:39:00+09:00,1.2,���k��,2.1,��,7.2,95.6,0,0,0,26.5
2023-04-17T04:40:00+09:00,1.2,���k��,2.4,��,7.1,95.5,0,0,0,26.5
2023-04-17T04:41:00+09:00,1.3,���k��,2.4,��,7.1,95.4,0,0,0,26.5
2023-04-17T04:42:00+09:00,1.4,���k��,2.5,���k��,7.1,95.4,0,0,0,26.5
2023-04-17T04:43:00+09:00,1.4,���k��,2.5,���k��,7.1,95.5,0,0,0,26.5
2023-04-17T04:44:00+09:00,1.3,���k��,2.5,���k��,7.1,95.5,0,0,0,26.5
2023-04-17T04:45:00+09:00,1.4,��,2.7,���쓌,7.1,95.6,0,0,0,26.5
2023-04-17T04:46:00+09:00,1.6,��,3.2,�쓌,7.2,95.6,0,0,0,26.5
2023-04-17T04:47:00+09:00,1.7,��,3.5,�쓌,7.2,95.7,0,0,0,26.5
2023-04-17T04:48:00+09:00,1.8,��,3.5,�쓌,7.2,95.7,0,0,0,26.5
2023-04-17T04:49:00+09:00,1.9,��,3.5,�쓌,7.2,95.7,0,0,0,26.5
2023-04-17T04:50:00+09:00,1.8,��,3.5,�쓌,7.2,95.6,0,0,0,26.5
2023-04-17T04:51:00+09:00,1.8,��,3.5,�쓌,7.2,95.6,0,0,0,26.5
2023-04-17T04:52:00+09:00,1.7,��,3.5,�쓌,7.3,95.7,0,0,0,26.5
2023-04-17T04:53:00+09:00,1.7,��,3.5,�쓌,7.2,95.7,0,0,0,26.5
2023-04-17T04:54:00+09:00,1.7,��,3.5,�쓌,7.3,95.7,0,0,0,26.5
2023-04-17T04:55:00+09:00,1.6,��,3.5,�쓌,7.3,95.7,0,0,0,26.5
2023-04-17T04:56:00+09:00,1.5,��,3.5,�쓌,7.3,95.7,0,0,0,26.5
2023-04-17T04:57:00+09:00,1.4,���k��,2.9,���쓌,7.3,95.7,0,0,0,26.5
2023-04-17T04:58:00+09:00,1.3,���k��,2.8,��,7.3,95.7,0,0,0,26.5
2023-04-17T04:59:00+09:00,1.3,���k��,2.8,��,7.3,95.7,0,0,0,26.5
2023-04-17T05:00:00+09:00,1.3,�k��,2,�k��,7.3,95.7,0,0,0,26.5
2023-04-17T05:01:00+09:00,1.3,�k��,2,�k��,7.3,95.7,0,0,0,26.5
2023-04-17T05:02:00+09:00,1.2,�k��,2,�k��,7.4,95.8,0,0,0,26.5
2023-04-17T05:03:00+09:00,1.1,�k��,2,�k��,7.5,95.9,0,0,0,26.5
2023-04-17T05:04:00+09:00,1.2,���k��,2,�k��,7.5,95.8,0,0,0,26.5
2023-04-17T05:05:00+09:00,1.1,���k��,2,�k��,7.4,95.7,0,0,0,26.5
2023-04-17T05:06:00+09:00,1.1,���k��,2,�k��,7.5,95.8,0,0,0,26.5
2023-04-17T05:07:00+09:00,1,��,2,�k��,7.4,95.7,0,0,0,26.5
2023-04-17T05:08:00+09:00,0.9,��,1.8,�k��,7.4,95.7,0,0,0,26.5
2023-04-17T05:09:00+09:00,0.8,���쓌,1.7,�쓌,7.5,95.8,0,0,0,26.5
2023-04-17T05:10:00+09:00,0.7,���쓌,1.7,�쓌,7.5,95.7,0,0,0,26.5
2023-04-17T05:11:00+09:00,0.7,���쓌,1.7,�쓌,7.5,95.7,0,0,0,26.5
2023-04-17T05:12:00+09:00,0.7,���쓌,1.7,�쓌,7.5,95.7,0,0,0,26.5
2023-04-17T05:13:00+09:00,0.8,���쓌,1.7,�쓌,7.5,95.6,0,0,0,26.5
2023-04-17T05:14:00+09:00,0.7,���쓌,1.7,�쓌,7.5,95.6,0,0,0,26.5
2023-04-17T05:15:00+09:00,0.8,��,1.7,�쓌,7.4,95.6,0,0,0,26.5
2023-04-17T05:16:00+09:00,0.8,��,1.7,�쓌,7.4,95.6,0,0,0,26.5
2023-04-17T05:17:00+09:00,0.7,��,1.4,���k��,7.4,95.6,0,0,0,26.5
2023-04-17T05:18:00+09:00,0.8,���k��,1.4,���k��,7.5,95.8,0,0,0,26.5
2023-04-17T05:19:00+09:00,0.8,���k��,1.5,��,7.5,95.7,0,0,0,26.5
2023-04-17T05:20:00+09:00,0.9,���k��,1.8,��,7.5,95.7,0,0,0,26.5
2023-04-17T05:21:00+09:00,1,���k��,1.8,��,7.5,95.7,0,0,0,26.5
2023-04-17T05:22:00+09:00,1,���k��,1.8,��,7.4,95.7,0,0,0,26.5
2023-04-17T05:23:00+09:00,1,���k��,1.8,��,7.4,95.6,0,0,0,26.5
2023-04-17T05:24:00+09:00,1,���k��,1.8,��,7.4,95.6,0,0,0,26.5
2023-04-17T05:25:00+09:00,1,���k��,1.8,��,7.5,95.7,0,0,0,26.5
2023-04-17T05:26:00+09:00,1,��,1.8,��,7.5,95.8,0,0,0,26.5
2023-04-17T05:27:00+09:00,1,��,1.8,��,7.5,95.8,0,0,0,26.5
2023-04-17T05:28:00+09:00,1,��,1.8,��,7.5,95.8,0,0,0,26.5
2023-04-17T05:29:00+09:00,0.9,��,1.8,��,7.5,95.7,0,0,0,26.5
2023-04-17T05:30:00+09:00,0.8,��,1.5,��,7.5,95.6,0,0,0,26.5
2023-04-17T05:31:00+09:00,0.8,���k��,1.4,��,7.5,95.7,0,0,0,26.5
2023-04-17T05:32:00+09:00,0.7,��,1.4,��,7.5,95.8,0,0,0,26.5
2023-04-17T05:33:00+09:00,0.7,��,1.4,��,7.5,95.8,0,0,0,26.5
2023-04-17T05:34:00+09:00,0.8,��,1.4,��,7.5,95.8,0,0,0,26.5
2023-04-17T05:35:00+09:00,0.7,��,1.4,��,7.7,95.9,0,0,0,26.5
2023-04-17T05:36:00+09:00,0.7,��,1.4,��,7.6,96,0,0,0,26.5
2023-04-17T05:37:00+09:00,0.7,���k��,1.3,��,7.6,95.7,0,0,0,26.5
2023-04-17T05:38:00+09:00,0.6,��,1.3,��,7.5,95.6,0,0,0,26.5
2023-04-17T05:39:00+09:00,0.6,��,1.3,��,7.6,95.7,0,0,0,26.5
2023-04-17T05:40:00+09:00,0.6,��,1.3,��,7.6,95.8,0,0,0,26.5
2023-04-17T05:41:00+09:00,0.6,��,1.3,��,7.6,95.7,0,0,0,26.5
2023-04-17T05:42:00+09:00,0.7,��,1.5,���쓌,7.6,95.8,0,0,0,26.5
2023-04-17T05:43:00+09:00,0.7,��,1.5,���쓌,7.6,95.8,0,0,0,26.5
2023-04-17T05:44:00+09:00,0.7,��,1.5,���쓌,7.6,95.8,0,0,0,26.5
2023-04-17T05:45:00+09:00,0.7,��,1.5,���쓌,7.7,95.8,0,0,0,26.5
2023-04-17T05:46:00+09:00,0.7,���쓌,1.5,���쓌,7.7,95.8,0,0,0,26.5
2023-04-17T05:47:00+09:00,0.7,���쓌,1.5,���쓌,7.6,95.7,0,0,0,26.5
2023-04-17T05:48:00+09:00,0.8,���쓌,1.5,���쓌,7.6,95.6,0,0,0,26.5
2023-04-17T05:49:00+09:00,0.7,���쓌,1.5,���쓌,7.6,95.7,0,0,0,26.5
2023-04-17T05:50:00+09:00,0.7,���쓌,1.5,���쓌,7.7,95.8,0,0,0,26.5
2023-04-17T05:51:00+09:00,0.6,���쓌,1.5,���쓌,7.7,95.8,0,0,0,26.5
2023-04-17T05:52:00+09:00,0.5,���쓌,1.5,�쓌,7.8,95.9,0,0,0,26.5
2023-04-17T05:53:00+09:00,0.4,���쓌,1.5,�쓌,7.8,96,0,0,0,26.5
2023-04-17T05:54:00+09:00,0.4,��,1,���k��,7.8,95.8,0,0,0,26.5
2023-04-17T05:55:00+09:00,0.3,��,1,���k��,7.7,95.7,0,0,0,26.5
2023-04-17T05:56:00+09:00,0.4,��,1,���k��,7.7,95.6,0,0,0,26.5
2023-04-17T05:57:00+09:00,0.4,���k��,1,�k��,7.6,95.6,0,0,0,26.5
2023-04-17T05:58:00+09:00,0.4,���k��,1,�k��,7.6,95.6,0,0,0,26.5
2023-04-17T05:59:00+09:00,0.4,�k��,1,�k��,7.6,95.7,0,0,0,26.5
2023-04-17T06:00:00+09:00,0.4,�k��,1,�k��,7.6,95.7,0,0,0,26.5
2023-04-17T06:01:00+09:00,0.5,�k��,1,�k��,7.7,95.7,0,0,0,26.5
2023-04-17T06:02:00+09:00,0.5,�k��,1,�k��,7.7,95.8,0,0,0,26.5
2023-04-17T06:03:00+09:00,0.5,�k��,1,�k��,7.7,95.8,0,0,0,26.5
2023-04-17T06:04:00+09:00,0.5,�k��,1,�k��,7.7,95.7,0,0,0,26.5
2023-04-17T06:05:00+09:00,0.4,�k��,1,�k��,7.7,95.7,0,0,0,26.5
2023-04-17T06:06:00+09:00,0.4,�k��,0.9,��,7.8,95.8,0,0,0,26.5
2023-04-17T06:07:00+09:00,0.4,�k��,0.9,��,7.8,95.9,0,0,0,26.5
2023-04-17T06:08:00+09:00,0.4,���k��,0.9,��,7.8,95.9,0,0,0,26.5
2023-04-17T06:09:00+09:00,0.4,���k��,0.9,��,7.8,95.8,0,0,0,26.5
2023-04-17T06:10:00+09:00,0.4,���k��,1.1,�k�k��,7.8,95.8,0,0,0,26.5
2023-04-17T06:11:00+09:00,0.4,���k��,1.1,�k�k��,7.8,95.8,0,0,0,26.5
2023-04-17T06:12:00+09:00,0.5,���k��,1.1,�k�k��,7.9,95.8,0,0,0,26.5
2023-04-17T06:13:00+09:00,0.5,���k��,1.1,�k�k��,7.8,95.8,0,0,0,26.5
2023-04-17T06:14:00+09:00,0.5,���k��,1.1,�k�k��,7.9,95.8,0,0,0,26.5
2023-04-17T06:15:00+09:00,0.6,��,1.1,�k�k��,8,96,0,0,0,26.5
2023-04-17T06:16:00+09:00,0.6,��,1.1,�k�k��,8.1,96,0,0,0,26.5
2023-04-17T06:17:00+09:00,0.6,��,1.1,�k�k��,8.2,96.1,0,0,0,26.5
2023-04-17T06:18:00+09:00,0.6,��,1.1,�k�k��,8.2,96,0,0,0,26.5
2023-04-17T06:19:00+09:00,0.6,��,1.4,���쓌,8.2,96,0,0,0,26.5
2023-04-17T06:20:00+09:00,0.7,��,1.6,���쓌,8.1,95.8,0,0,0,26.5